JCSAT-RA (JCSAT-12)

Last updated on Thu Mar 10 2022 00:02:38 GMT+0000 (Greenwich Mean Time)

1 35755U 09044A 22068.56785469 -.00000349 00000+0 00000+0 0 9995 2 35755 0.0370 252.0979 0004389 88.1353 158.8956 1.00274541 46010
UTC large
Height (km)
Speed (km/s)
/
Latitude / Longitude
Inclination (degrees)
Orbital Period (minutes)
Azimuth
Elevation
Range (km)
Doppler Factor

Next 0 passes for location: London (51.5072 / 0.1276)

Sorry there are no passes over London.